• In Netherlands
  • List of Countries
  • For 7 days
  • Water Temperature
  • Satellite Maps
  • Weather Map
  • Weather Widgets
  • user-avatar
    Login

    Hourly Weather Rawson

    Today, 24 February, Friday

    Time Temperature Precipitation Wind Pressure Humidity
    00:00 +25°C° 0 mm 4 mps 755 mmHg 58%
    01:00 +25°C° 0 mm 3 mps 755 mmHg 57%
    02:00 +25°C° 0 mm 2 mps 755 mmHg 56%
    03:00 +25°C° 0 mm 3 mps 755 mmHg 54%
    04:00 +25°C° 0 mm 3 mps 755 mmHg 52%
    05:00 +25°C° 0 mm 3 mps 756 mmHg 49%
    06:00 +25°C° 0 mm 5 mps 756 mmHg 49%
    07:00 +26°C° 0 mm 6 mps 757 mmHg 48%
    08:00 +26°C° 0 mm 7 mps 757 mmHg 47%
    09:00 +26°C° 0 mm 8 mps 758 mmHg 51%
    10:00 +26°C° 0 mm 9 mps 758 mmHg 54%
    11:00 +26°C° 0 mm 10 mps 759 mmHg 58%
    12:00 +26°C° 0 mm 10 mps 759 mmHg 59%
    13:00 +26°C° 0 mm 10 mps 759 mmHg 60%
    14:00 +24°C° 0 mm 10 mps 760 mmHg 61%
    15:00 +23°C° 0 mm 10 mps 760 mmHg 64%
    16:00 +22°C° 0 mm 9 mps 760 mmHg 67%
    17:00 +21°C° 0 mm 9 mps 760 mmHg 69%
    18:00 +21°C° 0 mm 8 mps 760 mmHg 72%
    19:00 +20°C° 0 mm 8 mps 760 mmHg 75%
    20:00 +18°C° 0 mm 7 mps 761 mmHg 78%
    21:00 +19°C° 0 mm 6 mps 761 mmHg 79%
    22:00 +17°C° 0 mm 6 mps 761 mmHg 80%
    23:00 +17°C° 0 mm 5 mps 761 mmHg 81%

    Tomorrow, 25 February, Saturday

    Time Temperature Precipitation Wind Pressure Humidity
    00:00 +18°C° 0 mm 4 mps 761 mmHg 82%
    01:00 +18°C° 0 mm 3 mps 761 mmHg 83%
    02:00 +18°C° 0 mm 2 mps 760 mmHg 83%
    03:00 +18°C° 0 mm 2 mps 760 mmHg 84%
    04:00 +18°C° 0 mm 2 mps 760 mmHg 84%
    05:00 +18°C° 0 mm 2 mps 759 mmHg 84%
    06:00 +19°C° 0 mm 3 mps 759 mmHg 81%
    07:00 +19°C° 0 mm 4 mps 759 mmHg 77%
    08:00 +20°C° 0 mm 4 mps 759 mmHg 74%
    09:00 +23°C° 0 mm 4 mps 758 mmHg 64%
    10:00 +26°C° 0 mm 4 mps 758 mmHg 54%
    11:00 +28°C° 0 mm 4 mps 758 mmHg 45%
    12:00 +30°C° 0 mm 4 mps 757 mmHg 40%
    13:00 +33°C° 0 mm 4 mps 757 mmHg 35%
    14:00 +35°C° 0 mm 4 mps 756 mmHg 30%
    15:00 +35°C° 0 mm 5 mps 756 mmHg 30%
    16:00 +35°C° 0 mm 5 mps 755 mmHg 31%
    17:00 +35°C° 0 mm 5 mps 755 mmHg 31%
    18:00 +32°C° 0 mm 6 mps 755 mmHg 38%
    19:00 +29°C° 0 mm 6 mps 755 mmHg 46%
    20:00 +27°C° 0 mm 7 mps 755 mmHg 53%
    21:00 +26°C° 0 mm 7 mps 755 mmHg 55%
    22:00 +26°C° 0 mm 6 mps 755 mmHg 57%
    23:00 +24°C° 0 mm 6 mps 755 mmHg 59%

    Day after tomorrow, 26 February, Sunday

    Time Temperature Precipitation Wind Pressure Humidity
    00:00 +24°C° 0 mm 6 mps 755 mmHg 62%
    01:00 +24°C° 0 mm 6 mps 755 mmHg 66%
    02:00 +23°C° 0 mm 6 mps 755 mmHg 69%
    03:00 +23°C° 0.3 mm 6 mps 754 mmHg 70%
    04:00 +23°C° 0.3 mm 5 mps 754 mmHg 72%
    05:00 +23°C° 0.3 mm 5 mps 754 mmHg 74%
    06:00 +24°C° 0.9 mm 6 mps 755 mmHg 69%
    07:00 +24°C° 0.9 mm 6 mps 755 mmHg 65%
    08:00 +26°C° 0.9 mm 6 mps 755 mmHg 60%
    09:00 +28°C° 0.7 mm 6 mps 755 mmHg 53%
    10:00 +30°C° 0.7 mm 6 mps 755 mmHg 45%
    11:00 +33°C° 0.7 mm 5 mps 755 mmHg 37%
    12:00 +34°C° 0.1 mm 5 mps 755 mmHg 34%
    13:00 +35°C° 0.1 mm 6 mps 755 mmHg 32%
    14:00 +36°C° 0.1 mm 6 mps 754 mmHg 29%
    15:00 +36°C° 0 mm 6 mps 754 mmHg 30%
    16:00 +36°C° 0 mm 6 mps 754 mmHg 30%
    17:00 +36°C° 0 mm 6 mps 753 mmHg 31%
    18:00 +33°C° 0 mm 5 mps 754 mmHg 40%
    19:00 +30°C° 0 mm 5 mps 754 mmHg 49%
    20:00 +28°C° 0 mm 5 mps 754 mmHg 58%
    21:00 +27°C° 0 mm 5 mps 754 mmHg 63%
    22:00 +26°C° 0 mm 5 mps 754 mmHg 68%
    23:00 +26°C° 0 mm 5 mps 754 mmHg 72%

    27 February, Monday

    Time Temperature Precipitation Wind Pressure Humidity
    00:00 +25°C° 0 mm 5 mps 754 mmHg 74%
    01:00 +25°C° 0 mm 4 mps 753 mmHg 76%
    02:00 +25°C° 0 mm 4 mps 753 mmHg 78%
    03:00 +25°C° 0.1 mm 3 mps 753 mmHg 80%
    04:00 +25°C° 0.1 mm 3 mps 752 mmHg 82%
    05:00 +24°C° 0.1 mm 3 mps 752 mmHg 83%
    06:00 +25°C° 0 mm 4 mps 752 mmHg 81%
    07:00 +25°C° 0 mm 4 mps 752 mmHg 80%
    08:00 +26°C° 0 mm 4 mps 752 mmHg 78%
    09:00 +27°C° 0.2 mm 3 mps 752 mmHg 71%
    10:00 +29°C° 0.2 mm 3 mps 752 mmHg 64%
    11:00 +30°C° 0.2 mm 2 mps 752 mmHg 58%
    12:00 +32°C° 0 mm 2 mps 752 mmHg 53%
    13:00 +34°C° 0 mm 2 mps 751 mmHg 49%
    14:00 +35°C° 0 mm 3 mps 751 mmHg 45%
    15:00 +35°C° 0 mm 3 mps 751 mmHg 42%
    16:00 +35°C° 0 mm 3 mps 750 mmHg 39%
    17:00 +36°C° 0 mm 3 mps 750 mmHg 36%
    18:00 +34°C° 0 mm 3 mps 750 mmHg 38%
    19:00 +33°C° 0 mm 3 mps 750 mmHg 40%
    20:00 +30°C° 0 mm 3 mps 750 mmHg 42%
    21:00 +30°C° 0 mm 3 mps 750 mmHg 44%
    22:00 +29°C° 0 mm 2 mps 750 mmHg 46%
    23:00 +28°C° 0 mm 2 mps 750 mmHg 48%

    28 February, Tuesday

    Time Temperature Precipitation Wind Pressure Humidity
    00:00 +28°C° 0 mm 2 mps 750 mmHg 43%
    01:00 +28°C° 0 mm 3 mps 750 mmHg 38%
    02:00 +27°C° 0 mm 3 mps 750 mmHg 33%
    03:00 +26°C° 0 mm 3 mps 750 mmHg 33%
    04:00 +26°C° 0 mm 3 mps 749 mmHg 34%
    05:00 +25°C° 0 mm 3 mps 749 mmHg 34%
    06:00 +26°C° 0 mm 3 mps 749 mmHg 32%
    07:00 +27°C° 0 mm 2 mps 749 mmHg 29%
    08:00 +28°C° 0 mm 2 mps 749 mmHg 27%
    09:00 +30°C° 0 mm 3 mps 748 mmHg 24%
    10:00 +33°C° 0 mm 4 mps 748 mmHg 22%
    11:00 +35°C° 0 mm 5 mps 747 mmHg 19%
    12:00 +36°C° 0 mm 5 mps 746 mmHg 18%
    13:00 +37°C° 0 mm 5 mps 746 mmHg 17%
    14:00 +40°C° 0 mm 6 mps 745 mmHg 16%
    15:00 +39°C° 0 mm 6 mps 745 mmHg 17%
    16:00 +39°C° 0 mm 7 mps 744 mmHg 18%
    17:00 +39°C° 0 mm 7 mps 743 mmHg 18%
    18:00 +38°C° 0 mm 6 mps 743 mmHg 21%
    19:00 +35°C° 0 mm 5 mps 743 mmHg 25%
    20:00 +33°C° 0 mm 4 mps 743 mmHg 28%
    21:00 +33°C° 0 mm 6 mps 743 mmHg 29%
    22:00 +33°C° 0 mm 8 mps 742 mmHg 31%
    23:00 +32°C° 0 mm 10 mps 742 mmHg 32%

    1 March, Wednesday

    Time Temperature Precipitation Wind Pressure Humidity
    00:00 +32°C° 0 mm 10 mps 742 mmHg 33%
    01:00 +31°C° 0 mm 10 mps 742 mmHg 35%
    02:00 +31°C° 0 mm 9 mps 742 mmHg 36%
    03:00 +29°C° 0 mm 9 mps 742 mmHg 37%
    04:00 +28°C° 0 mm 8 mps 742 mmHg 38%
    05:00 +27°C° 0 mm 7 mps 742 mmHg 39%
    06:00 +27°C° 0 mm 9 mps 742 mmHg 35%
    07:00 +27°C° 0 mm 10 mps 742 mmHg 32%
    08:00 +27°C° 0 mm 12 mps 743 mmHg 28%
    09:00 +28°C° 0 mm 12 mps 743 mmHg 25%
    10:00 +28°C° 0 mm 13 mps 743 mmHg 22%
    11:00 +29°C° 0 mm 14 mps 743 mmHg 18%
    12:00 +29°C° 0 mm 13 mps 743 mmHg 18%
    13:00 +31°C° 0 mm 13 mps 742 mmHg 17%
    14:00 +31°C° 0 mm 13 mps 742 mmHg 16%
    15:00 +31°C° 0 mm 13 mps 743 mmHg 17%
    16:00 +29°C° 0 mm 13 mps 744 mmHg 18%
    17:00 +28°C° 0 mm 13 mps 745 mmHg 19%
    18:00 +24°C° 0 mm 13 mps 747 mmHg 33%
    19:00 +21°C° 0 mm 12 mps 749 mmHg 46%
    20:00 +17°C° 0 mm 12 mps 751 mmHg 60%
    21:00 +16°C° 0 mm 10 mps 752 mmHg 56%
    22:00 +16°C° 0 mm 9 mps 753 mmHg 52%
    23:00 +15°C° 0 mm 8 mps 755 mmHg 47%
    Show more